Powrót do katalogu

STARLINK-30350

AktywnyŁącznośćVLEO
NORAD 57746·PAYLOAD·🇺🇸 United States

Wystrzelony Sep 1, 2023 z Cape Canaveral Space Force Station

Loading…

Następne Przeloty (najbliższe 24 godziny)

TLE

ŚwieżeSource: CelesTrak SupGP

Epoka: Sep 14, 2026, 22:10 UTC

1 57746C 23131Q   26257.92409722 -.00028340  00000+0 -10264-2 0  2576
2 57746  43.0020 180.3699 0001330 264.0612 220.1579 15.27595254    16

Śledź STARLINK-30350 w czasie rzeczywistym z AllMySat

Download on the App Store